NOAA 16 DEB, 41410

Orbit data source: Space-Track

NOAA 16 DEB, 41410 is space debris in SSO originally from a launch on Thu, 21 Sep 2000 UTC launched from the Air Force Western Test Range (AFWTR). Debris objects in space refer to the collection of defunct objects orbiting the Earth. Examples of debris include non-operational satellites, rocket bodies, and fragments generated from explosions, collisions, or faulty payload assembly.

Loading next visibility...
Identifier
41410, 2000-055KP
Orbit
SSO
Country
Flag of USUS
Related business
Manufacturer
Unknown
Mission
Spacecraft
Bus & Motor
Unknown
Mass
Unknown
Launch date (UTC)
2000-09-21 (26 years ago)
Launch vehicle
Unknown
Launch site
Air Force Western Test Range (AFWTR)
Object type
Payload
Rocket body
Debris
Shape & HBR
Unknown shape, 0.1 m
Radar Cross Section
Medium (>0.1 m² and <1 m²)

Expand to show TLE details & history
Last TLE update: 4 days ago

TLE from 4 days ago
0 NOAA 16 DEB
1 41410U 00055KP  26169.56501376  .00002022  00000-0  95707-3 0  9994
2 41410  98.6950 211.0056 0021992 194.1506 165.9058 14.20630322532055
Epoch: 2026-06-18T13:33Z
TLE epoch observation values (Epoch: 2026-06-18T13:33:37.188Z)
Latitude
0.00002°
Longitude
100.79413°
Altitude
841.503 km
Speed
7.424 km/s
True Right ascension
14h 04m 01s
True Declination
0° 00' 00"
Sunlit
Object was in full shadow at epoch
Visualization orbit readout
Latitude
Unknown
Longitude
Unknown
Altitude
Unknown
Speed
Unknown
Apparent Right ascension
Unknown
Apparent Declination
Unknown
Sunlit
N/A
Visualization observer readout
Local Sidereal Time
21:46:21
Azimuth
Unknown
Elevation
Unknown
Doppler factor
Unknown
Orbital elements
Apogee altitude
836.21 km
Perigee altitude
804.548 km
Semi-major axis
7,198.516 km
Eccentricity
0.0022
Inclination
98.695°
RAAN
211.0056°
Arg. of periapsis
194.1506°
True anomaly
165.96701°
Mean anomaly
165.9058°
Eccentric anomaly
165.93642°
Mean motion
3.55368 °/min
Orbital period
101.3 mins
BSTAR
0.00095707
Loading maneuver chart data...
Computing Atmospheric mass density...

Documentation

Showing up to 5 results
|